sat.trackr.live / text

‹ back to catalog

STARLINK-35617

NORAD 66422 · 2025-259A

PAYLOAD ACTIVE UNKNOWN

§ Identity

Operator
Country
US
Launch date
2025-11-11
Launch site
AFETR
Launch vehicle
Mass (kg)
RCS (m²)

Purposes: comms

External: N2YO · Heavens-Above · Gunter

§ Orbital elements

Epoch: 2026-09-20T09:01:04.200384Z

Period
94.27 min
Inclination
43.0026°
Eccentricity
0.0001739
Mean motion
15.27583588 rev/d
Perigee alt
481.8 km
Apogee alt
484.2 km
Semi-major
6,861.2 km
B*
3.5258e-4
RAAN
255.0762°
Arg perigee
278.5363°
Mean anomaly
81.5291°
Rev number
4,926

§ Raw data

STARLINK-356171 66422U 25259A   26263.37574306  .00009454  00000+0  35258-3 0  99942 66422  43.0026 255.0762 0001739 278.5363  81.5291 15.27583588 49267

JSON: /api/v1/satellites/66422 · /tle

For live sub-satellite position, see the globe view (requires WebGL).

§ Visibility from observer

Set your observer location to see the next 7 days of passes ≥ 10°. The values pass through the URL so the page stays shareable.

No JS? Fill the form by hand. The geolocation button needs JavaScript.